Location: Newark
(42.7133°N, 87.7910°W)
Time: 15:43:21
(UTC+00:00)

Tiros 1 - Pass Details

Date: 23 September 2019
Orbit: 630 x 664 km, 48.4° (Epoch: 19 October)

Event Time Altitude Azimuth Distance (km) Brightness Sun altitude
Rises 20:17:16 0° 281° (W) 2,966 11.0 35.0°
Reaches altitude 10° 20:19:44 10° 288° (WNW) 2,049 10.2 34.6°
Maximum altitude 20:24:12 41° 359° (N) 939 8.0 34.0°
Drops below altitude 10° 20:28:37 10° 70° (ENE) 2,028 9.3 33.3°
Sets 20:31:03 0° 78° (ENE) 2,931 10.1 33.0°
